Location: Bauerbach
(50.4985°N, 10.3912°E)
Time: 15:41:55
(UTC+00:00)

Meteor 1-21 - Pass Details

Date: 13 January 2026
Orbit: 845 x 885 km, 81.2° (Epoch: 10 February)

Event Time Altitude Azimuth Distance (km) Brightness Sun altitude
Exits shadow 04:34:04 33° 342° (NNW) 1,397 5.1 -24.7°
Maximum altitude 04:36:42 79° 260° (W) 877 4.1 -24.3°
Drops below altitude 10° 04:42:21 10° 175° (S) 2,492 6.8 -23.4°
Sets 04:44:46 0° 174° (S) 3,431 7.5 -23.0°
